Weather History for Marshalltown, IA

Change the Weather History Date:

Friday, October 4, 2013

  Actual Average Record
Temperature  
Mean Temperature 68 °F 55 °F  
Max Temperature 74 °F 67 °F 87 °F (2005)
Min Temperature 62 °F 43 °F 28 °F (1999)
Degree Days  
Heating Degree Days 0 11  
Month to date heating degree days 0 42  
Since 1 July heating degree days 100 202  
Cooling Degree Days 3 1  
Month to date cooling degree days 16 4  
Year to date cooling degree days 872 722  
Growing Degree Days 18 (Base 50)    
Moisture  
Dew Point 64 °F    
Average Humidity 90    
Maximum Humidity 100    
Minimum Humidity 79    
Precipitation  
Precipitation 1.16 in 0.06 in 1.55 in (1998)
Month to date precipitation 1.17 0.28  
Sea Level Pressure  
Sea Level Pressure 29.84 in    
Wind  
Wind Speed 11 mph (ESE)    
Max Wind Speed 21 mph    
Max Gust Speed 25 mph    
Visibility 8 miles    
Events Rain , Thunderstorm    
T = Trace of Precipitation, MM = Missing Value Source: NWS Daily Summary

Daily Weather History Graph

Daily Weather History Graph

Search for Another Location

Airport:

Trip Planner

Search our weather history database for the weather conditions in past years. The results will help you decide how hot, cold, wet, or windy it might be!

Date:

Astronomy

Oct. 04, 2013 Rise Set
Actual Time 7:12 AM CDT 6:47 PM CDT
Civil Twilight 6:44 AM CDT 7:15 PM CDT
Nautical Twilight 6:11 AM CDT 7:47 PM CDT
Astronomical Twilight 5:39 AM CDT 8:20 PM CDT
Moon 6:48 AM CDT (10/4) 6:29 PM CDT (10/4)
Length of Visible Light 12h 31m
Length of Day
11h 35m
Waning Crescent, 0% of the Moon is Illuminated
Oct 4
Waning Crescent
Oct 4
New
Oct 11
First Quarter
Oct 18
Full
Oct 26
Last Quarter

Hourly Weather History & Observations

Time (CDT) Temp. Dew Point Humidity Pressure Visibility Wind Dir Wind Speed Gust Speed Precip Events Conditions
12:43 AM 64.4 °F 62.6 °F 94% 29.82 in 10.0 mi SE 3.5 mph - N/A Thunderstorm Clear
12:53 AM 64.9 °F 62.1 °F 90% 29.80 in 10.0 mi Variable 3.5 mph - 0.01 in Rain , Thunderstorm Light Rain
1:11 AM 66.2 °F 62.6 °F 88% 29.82 in 10.0 mi Calm Calm - 0.00 in Rain Light Rain
1:23 AM 64.4 °F 62.6 °F 94% 29.82 in 10.0 mi SE 8.1 mph - 0.00 in Thunderstorm Scattered Clouds
1:53 AM 66.9 °F 64.9 °F 93% 29.80 in 10.0 mi SE 8.1 mph - 0.01 in Thunderstorm Thunderstorm
2:23 AM 66.2 °F 64.4 °F 94% 29.84 in 2.5 mi WSW 9.2 mph - 0.12 in Rain , Thunderstorm Heavy Thunderstorms and Rain
2:30 AM 66.2 °F 64.4 °F 94% 29.83 in 7.0 mi South 9.2 mph - 0.12 in Rain , Thunderstorm Light Thunderstorms and Rain
2:53 AM 66.9 °F 64.0 °F 90% 29.82 in 10.0 mi NW 17.3 mph - 0.13 in Rain , Thunderstorm Light Rain
3:40 AM 64.4 °F 64.4 °F 100% 29.90 in 5.0 mi NW 11.5 mph - 0.11 in Rain , Thunderstorm Thunderstorms and Rain
3:46 AM 62.6 °F 62.6 °F 100% 29.92 in 1.5 mi WNW 19.6 mph - 0.29 in Rain , Thunderstorm Heavy Thunderstorms and Rain
3:51 AM 62.6 °F 62.6 °F 100% 29.93 in 0.8 mi NW 8.1 mph 21.9 mph 0.50 in Rain , Thunderstorm Heavy Thunderstorms and Rain
3:53 AM 63.0 °F 62.1 °F 97% 29.91 in 0.8 mi NNW 4.6 mph - 0.55 in Rain , Thunderstorm Heavy Thunderstorms and Rain
4:03 AM 62.6 °F 62.6 °F 100% 29.88 in 2.0 mi NNE 15.0 mph - 0.12 in Rain , Thunderstorm Heavy Thunderstorms and Rain
4:10 AM 62.6 °F 62.6 °F 100% 29.86 in 6.0 mi NE 13.8 mph - 0.13 in Rain , Thunderstorm Light Thunderstorms and Rain
4:30 AM 64.4 °F 62.6 °F 94% 29.85 in 10.0 mi ESE 10.4 mph - 0.14 in Rain Light Rain
4:43 AM 64.4 °F 62.6 °F 94% 29.87 in 10.0 mi NW 5.8 mph - 0.14 in   Mostly Cloudy
4:53 AM 64.0 °F 63.0 °F 96% 29.86 in 10.0 mi NNE 4.6 mph - 0.14 in Rain Light Rain
5:53 AM 64.0 °F 63.0 °F 96% 29.84 in 10.0 mi ESE 9.2 mph - 0.00 in   Clear
6:53 AM 63.0 °F 61.0 °F 93% 29.84 in 10.0 mi ESE 9.2 mph - N/A   Clear
7:41 AM 62.6 °F 60.8 °F 94% 29.88 in 10.0 mi East 5.8 mph - N/A Thunderstorm Mostly Cloudy
7:53 AM 62.1 °F 60.1 °F 93% 29.88 in 10.0 mi ESE 4.6 mph - N/A Thunderstorm Overcast
8:22 AM 62.6 °F 60.8 °F 94% 29.90 in 4.0 mi ENE 6.9 mph - 0.05 in Rain Rain
8:53 AM 62.1 °F 60.1 °F 93% 29.87 in 8.0 mi ENE 9.2 mph - 0.09 in Rain Rain
9:16 AM 62.6 °F 60.8 °F 94% 29.88 in 5.0 mi ESE 6.9 mph - 0.06 in Rain , Thunderstorm Rain
9:31 AM 62.6 °F 60.8 °F 94% 29.89 in 7.0 mi ESE 11.5 mph - 0.09 in Rain Light Rain
9:53 AM 62.1 °F 61.0 °F 96% 29.90 in 4.0 mi SE 15.0 mph - 0.15 in Rain Rain
10:53 AM 64.0 °F 63.0 °F 96% 29.86 in 10.0 mi ESE 10.4 mph - 0.08 in   Mostly Cloudy
11:25 AM 64.4 °F 64.4 °F 100% 29.86 in 10.0 mi SE 11.5 mph - N/A   Scattered Clouds
11:53 AM 64.9 °F 64.0 °F 97% 29.84 in 10.0 mi SE 17.3 mph 23.0 mph N/A   Scattered Clouds
12:53 PM 66.9 °F 63.0 °F 87% 29.83 in 10.0 mi SE 12.7 mph - N/A   Clear
1:53 PM 68.0 °F 64.9 °F 90% 29.81 in 10.0 mi SSE 17.3 mph 25.3 mph 0.00 in   Partly Cloudy
2:23 PM 66.2 °F 64.4 °F 94% 29.82 in 10.0 mi ESE 9.2 mph 18.4 mph 0.00 in Rain , Thunderstorm Light Rain
2:53 PM 66.9 °F 66.0 °F 97% 29.82 in 10.0 mi SE 9.2 mph - 0.00 in   Scattered Clouds
3:53 PM 70.0 °F 68.0 °F 93% 29.80 in 10.0 mi ESE 10.4 mph - N/A   Clear
4:53 PM 71.1 °F 69.1 °F 93% 29.78 in 10.0 mi ESE 10.4 mph - N/A   Partly Cloudy
5:53 PM 72.0 °F 70.0 °F 93% 29.76 in 10.0 mi East 9.2 mph - N/A   Clear
6:53 PM 72.0 °F 70.0 °F 93% 29.76 in 9.0 mi ESE 5.8 mph - N/A   Clear
7:53 PM 69.1 °F 68.0 °F 96% 29.76 in 9.0 mi ESE 6.9 mph - N/A   Clear
9:53 PM 73.0 °F 68.0 °F 84% 29.75 in 10.0 mi SSE 10.4 mph - N/A   Clear
10:53 PM 73.9 °F 66.9 °F 79% 29.76 in 10.0 mi SSE 11.5 mph - N/A   Partly Cloudy
11:53 PM 73.9 °F 66.9 °F 79% 29.76 in 10.0 mi South 16.1 mph 23.0 mph N/A   Scattered Clouds